www.pogodaiklimat.ru

Погода и климат >> Архив погоды >> Россия >> Магаданская область >> Мыс Братьев


ПОГОДА на Мысе Братьев

  • Прогноз погоды на Мысе Братьев
  • Монитор погоды на Мысе Братьев
  • Климат города

АРХИВ ПОГОДЫ на Мысе Братьев

Время (UTC), дата Ветер
(напр.,м/с)
 
Видим.   Явления Облачность Т
(С)
Тd
(С)
f
(%)
Тe
(С)
Тes
(С)
Комфортность P
(гПа)
Po
(гПа)
Тmin
(С)
Tmax
(С)
R
(мм)
S
(см)
09 16.03 СВ 8-11
{14}
50 км 8/8 600 м
[Cb cap]
-2.3 -4.9 82 -10 -10 1012.9 1011.2 -1.6
12 16.03 СВ 6-10
{13}
50 км 8/8 600 м
[Cb cap]
-2.6 -5.1 83 -10 -10 1013.1 1011.4
15 16.03
{12}
50 км н/о -2.7 -5.7 80 -10 -10 1012.7 1011.0
18 16.03 С 5
{10}
50 км ясно -3.3 -7.5 73 -10 -10 1012.7 1011.1
21 16.03 С 6 50 км 8/4 1000 м
[Sc Ac lent]
-3.3 -7.3 74 -11 -10 1013.2 1011.5 -3.9 8
00 17.03 С 6
{11}
50 км 5/3 1000 м
[Sc Ac lent]
-0.8 -5.1 73 -7 -6 1013.6 1012.0
03 17.03 СВ 6
{11}
50 км 6/3 1000 м
[Sc Ac lent Ci fib]
+0.4 -3.8 73 -6 -5 1013.6 1012.0
06 17.03 С 8-11
{12}
50 км 5/1 1000 м
[Sc Ac lent Ci sp]
+0.6 -3.6 73 -6 -6 1013.8 1012.2
09 17.03 С 6
{12}
50 км 5/3 1000 м
[Sc Ac lent]
-1.2 -5.1 75 -8 -8 1014.5 1012.8 +0.9
12 17.03 С 7-10
{12}
50 км 5/5 1000 м
[Sc]
-1.5 -6.6 68 -9 -9 1014.3 1012.6
15 17.03 С 9-12
{15}
50 км 5/5 1000 м
[Sc]
-1.4 -8.1 60 -9 -9 1013.7 1012.1
18 17.03 С 10-14
{17}
50 км 8/8 600 м
[Cb cap]
-0.8 -7.0 63 -9 -9 1012.9 1011.2
21 17.03 С 11-16
{17}
50 км 8/5 1000 м
[Sc Ac und]
-0.9 -6.7 65 -9 -9 1012.8 1011.2 -2.4 5
00 18.03 СВ 10-15
{20}
50 км 8/8 600 м
[Cb cap]
+0.6 -3.6 73 -7 -7 1012.4 1010.7
03 18.03 СВ 12-18
{18}
50 км 8/8 600 м
[Cb cap]
+1.1 -4.0 69 -7 -7 1011.0 1009.4
06 18.03 СВ 11-16
{19}
50 км 10/10 600 м
[Cb cap]
+0.9 -3.7 71 -7 -7 1010.1 1008.5
09 18.03 СВ 8-13
{17}
50 км 10/10 600 м
[Cb cap]
+0.1 -3.7 76 -7 -7 1009.6 1008.0 +1.5
12 18.03 СВ 11-15
{18}
50 км 10/10 600 м
[Cb cap]
-0.4 -3.8 78 -9 -9 1009.3 1007.7
15 18.03 СВ 11-17
{18}
50 км 10/10 600 м
[Cb cap]
-0.3 -4.2 75 -9 -9 1008.2 1006.6
18 18.03 С 7-10
{17}
50 км 8/8 600 м
[Cb cap]
-0.8 -3.9 79 -8 -8 1007.7 1006.1
21 18.03 СВ 7-12
{13}
50 км 10/10 600 м
[Cb cap]
-0.9 -3.5 83 -8 -8 1008.0 1006.4 -1.1 5
00 19.03 С 9-12
{15}
50 км 10/10 600 м
[Cb cap]
-1.4 -4.2 81 -10 -10 1007.8 1006.2 -1.5
03 19.03 С 11-15
{16}
50 км 10/10 600 м
[Cb cap]
-0.4 -5.1 71 -9 -9 1007.1 1005.5
06 19.03 С 10-15
{15}
20 км 10/10 600 м
[Cb cap]
-1.4 -4.8 78 -10 -10 1007.0 1005.4
09 19.03 С 11-14
{17}
20 км 10/10 600 м
[Cb cap]
-2.2 -5.6 77 -11 -11 1007.4 1005.7 -0.3
12 19.03 С 11-16
{18}
20 км слабый ливневой снег 10/10 600 м
[Cb cap]
-2.6 -6.0 77 -12 -12 1007.3 1005.6
15 19.03 С 10-18
{20}
50 км {ливн. осадки} 10/10 600 м
[Cb cap]
-2.6 -5.8 79 -11 -11 1006.8 1005.2
18 19.03 С 9-14
{19}
50 км {ливн. осадки} 9/9 600 м
[Cb cap]
-2.6 -5.8 79 -11 -11 1006.7 1005.0
21 19.03 С 11-17
{17}
50 км 10/10 600 м
[Cb cap]
-2.0 -5.6 76 -11 -11 1007.1 1005.5 -3.2 0.6 5
00 20.03 СВ 12-17
{20}
50 км 9/9 600 м
[Cb cap]
-1.9 -4.7 81 -11 -11 1007.1 1005.4
03 20.03 С 11-17
{18}
50 км 10/10 600 м
[Cb cap]
-1.9 -4.7 81 -11 -11 1006.5 1004.9
06 20.03 СВ 12-17
{20}
50 км 10/10 600 м
[Cb cap]
-1.8 -4.6 81 -11 -11 1006.7 1005.1
09 20.03 СВ 11-16
{21}
50 км 10/10 600 м
[Cb cap]
-2.1 -4.5 84 -11 -11 1008.0 1006.4 -1.7
12 20.03 С 13-18
{20}
50 км 10/10 600 м
[Cb cap]
-1.8 -4.5 82 -11 -11 1008.6 1007.0
15 20.03 С 11-16
{19}
50 км 10/10 600 м
[Cb cap]
-2.1 -4.6 83 -11 -11 1008.8 1007.1
18 20.03 СВ 14-20
{23}
50 км 10/10 600 м
[Cb cap]
-2.4 -4.4 86 -13 -13 1008.9 1007.3
21 20.03 СВ 11-17
{21}
50 км 10/10 600 м
[Cb cap]
-2.0 -4.5 83 -11 -11 1010.8 1009.2 -2.4 2
00 21.03 СВ 12-17
{21}
50 км 10/10 600 м
[Cb cap]
-1.4 -4.7 78 -11 -11 1011.3 1009.7
03 21.03 СВ 12-17
{23}
20 км 10/10 600 м
[Cb cap]
-1.5 -4.5 80 -11 -11 1011.5 1009.8
06 21.03 СВ 14-20
{22}
20 км 10/10 600 м
[Cb cap]
-1.9 -4.3 84 -12 -12 1011.7 1010.0
09 21.03 СВ 13-20
{21}
20 км 10/10 600 м
[Cb cap]
-1.8 -4.2 84 -11 -11 1012.9 1011.2 -1.1
12 21.03 СВ 11-16
{20}
20 км 9/9 600 м
[Cb cap]
-1.8 -4.1 84 -11 -11 1013.2 1011.5
15 21.03 СВ 13-20
{22}
20 км 6/6 600 м
[Cb cap]
-1.8 -3.7 87 -12 -12 1012.9 1011.3
18 21.03 СВ 13-21
{21}
20 км 10/10 600 м
[Cb cap]
-1.9 -4.1 85 -12 -12 1012.8 1011.1
21 21.03 СВ 11-17
{21}
20 км 10/10 600 м
[Cb cap]
-1.3 -3.9 82 -10 -10 1012.8 1011.2 -2.0 2
00 22.03 СВ 12-18
{21}
20 км 10/10 600 м
[Cb cap]
-0.7 -3.9 79 -10 -10 1013.0 1011.4
03 22.03 СВ 10-17
{24}
50 км 8/6 600 м
[Cb cap Ac trans]
-0.1 -4.0 75 -8 -8 1012.7 1011.0
06 22.03 СВ 11-17
{22}
50 км 8/6 600 м
[Cb cap Ac trans]
-0.5 -4.0 77 -9 -9 1012.4 1010.8
09 22.03 СВ 11-17
{18}
50 км 8/6 600 м
[Cb cap Ac trans]
-0.8 -3.7 81 -9 -9 1012.5 1010.9 +0.1
12 22.03 СВ 12-18
{21}
50 км 10/10 600 м
[Cb cap]
-0.8 -4.0 79 -10 -10 1012.5 1010.8
15 22.03 СВ 10-16
{20}
50 км 8/8 600 м
[Cb cap]
-1.3 -3.5 85 -10 -10 1011.6 1010.0
18 22.03 СВ 12-19
{20}
20 км слабый ливневой снег 10/10 600 м
[Cb cap]
-1.3 -3.8 83 -10 -10 1011.7 1010.1
21 22.03 СВ 8-12
{22}
50 км {ливн. осадки} 10/10 600 м
[Cb cap]
-1.3 -3.4 86 -9 -9 1012.5 1010.9 -1.6 0.3 2
00 23.03 СВ 10-14
{17}
50 км 10/10 600 м
[Cb cap]
-1.1 -3.3 85 -10 -10 1013.4 1011.7
03 23.03 СВ 14-18
{19}
20 км слабый ливневой снег 10/10 600 м
[Cb cap]
-0.9 -3.3 84 -11 -11 1013.2 1011.5
06 23.03 СВ 10-16
{19}
20 км в посл. час ливневой снег 10/10 600 м
[Cb cap]
-0.4 -3.7 78 -9 -9 1013.7 1012.1

 

Местоположение метеостанции Мыс Братьев (Магаданская область, Россия): широта 59.10 долгота 153.30 высота над уровнем моря 13 м.

В архиве по умолчанию представлена погода на Мысе Братьев за последнюю неделю. Архивные данные за месяц целиком и за предыдущие месяцы, начиная с января 2011 года, Вы можете получить, выбрав интересующий диапазон дат из раскрывающегося списка и нажав кнопку "Ввод!".

Внимание! Время в таблицах - всемирное. Для получения местного времени необходимо прибавить поправку, которая на Мысе Братьев равна 11 ч.

Смотрите также архив погоды в соседних городах и на ближайших метеорологических станциях:

Погода в Брохово (Магаданская область, Россия) (80 км)
Погода на Мысе Алевина (Магаданская область, Россия) (119 км)
Погода в Оле (Магаданская область, Россия) (130 км)
Погода в Магадане (Магаданская область, Россия) (156 км)
Погода в Палатке (Магаданская область, Россия) (175 км)
Погода в Армани (Магаданская область, Россия) (192 км)
Погода в Мадауне (Магаданская область, Россия) (221 км)
Погода в Шелихова (Магаданская область, Россия) (228 км)
Погода в Талае (Магаданская область, Россия) (232 км)
Погода на Остров Спафарьева (Магаданская область, Россия) (245 км)

Пояснения к столбцам:

Ветер - указаны скорость ветра в м/с - средняя за 10 мин, порывы в срок и между сроками (в фигурных скобках) и направление, откуда дует ветер: С - северный, СВ - северо-восточный, В - восточный, ЮВ - юго-восточный, Ю - южный, ЮЗ - юго-западный, З - западный, СЗ - северо-западный.
Видимость - горизонтальная дальность видимости в метрах или километрах. При видимости от 1 до 10 км при отсутствии осадков обычно наблюдается дымка, при ухудшении видимости до 1 км и менее - туман. В сухую погоду видимость может ухудшаться дымом, пылью или мглою.
Явления - указаны атмосферные явления, наблюдавшиеся в срок или в последний час перед сроком; фигурными скобками обозначены явления, наблюдавшиеся между сроками (за 1-3 часа до срока); квадратными скобками обозначены град или гололедные отложения с указанием их диаметра в мм.
Облачность - указаны через наклонную черту общая и нижняя облачность в баллах и высота нижней границы облаков в метрах; квадратными скобками обозначены формы облаков: Ci - перистые, Cs - перисто-слоистые, Cc - перисто-кучевые, Ac - высококучевые, As - высокослоистые, Sc - слоисто-кучевые, Ns - слоисто-дождевые, Cu - кучевые, Cb - кучево-дождевые. Подробнее классификацию облаков см. в Атласе облаков (PDF).
T - Температура воздуха - температура, измеренная на высоте 2 м над землей.
Td - Температура точки росы - температура, при понижении до которой содержащийся в воздухе водяной пар достигнет насыщения.
f - Относительная влажность воздуха - влажноcть воздуха, измеренная на высоте 2 м над землей.
Te - Эффективная температура - температура, которую ощущает одетый по сезону человек в тени. Характеристика душности погоды. При расчете учитывается влияние влажности воздуха и скорости ветра на теплоощущения человека.
Tes - Эффективная температура на солнце - температура, которую ощущает человек, с поправкой на солнечный нагрев. Характеристика знойности погоды. Зависит от высоты солнца над горизонтом, облачности и скорости ветра. Ночью, в пасмурную погоду, а также при ветре 12 м/с и более поправка равна нулю.
P - Атмосферное давление - приведенное к уровню моря атмосферное давление.
Po - Атмосферное давление - измеренное на уровне метеостанции атмосферное давление.
Tmin - Минимальная температура - минимум температуры воздуха на высоте 2 м над землей.
Tmax - Максимальная температура - максимум температуры воздуха на высоте 2 м над землей.
R - Количество осадков - Количество выпавших осадков, мм. При наведении курсора мыши на число - период времени, за который выпало указанное количество осадков.
S - Снежный покров - Высота снежного покрова, см. При наведении курсора мыши на число - состояние снежного покрова и степень покрытия местности в баллах.